JLY1207 SBCF-SBIL

Flight info

Callsign JLY1207
Flight time 1h 6m
Altitude 37000
Route KADOR UZ14 DALOX
Aircraft B738/M-SDFGIKRWY/LB1

Departure

Time 2026-05-03 23:07
Airport Tancredo Neves International Airport (SBCF)

Arrival

Time 2026-05-04 00:13
Airport Bahia - Jorge Amado Airport (SBIL)
Time Latitude Longitude Altitude Speed Heading
2026-05-03 22:35 -19.63251 -43.96446 2755 ft 0 kts 68°
2026-05-03 22:57 -19.63254 -43.96453 2755 ft 2 kts 68°
2026-05-03 22:57 -19.63259 -43.96468 2756 ft 2 kts 68°
2026-05-03 22:57 -19.63263 -43.96479 2756 ft 0 kts 68°
2026-05-03 22:58 -19.63270 -43.96491 2756 ft 2 kts 32°
2026-05-03 22:58 -19.63285 -43.96495 2757 ft 2 kts 353°
2026-05-03 22:58 -19.63296 -43.96491 2757 ft 0 kts 323°
2026-05-03 22:58 -19.63301 -43.96486 2757 ft 1 kts 319°
2026-05-03 22:59 -19.63302 -43.96486 2757 ft 0 kts 319°
2026-05-03 23:00 -19.63301 -43.96486 2757 ft 0 kts 319°
2026-05-03 23:01 -19.63285 -43.96500 2757 ft 5 kts 320°
2026-05-03 23:01 -19.63240 -43.96537 2756 ft 10 kts 322°
2026-05-03 23:01 -19.63192 -43.96597 2757 ft 11 kts 265°
2026-05-03 23:02 -19.63232 -43.96664 2758 ft 10 kts 232°
2026-05-03 23:02 -19.63259 -43.96732 2757 ft 10 kts 290°
2026-05-03 23:02 -19.63213 -43.96791 2757 ft 10 kts 318°
2026-05-03 23:02 -19.63156 -43.96845 2757 ft 11 kts 318°
2026-05-03 23:03 -19.63090 -43.96907 2757 ft 13 kts 319°
2026-05-03 23:03 -19.63017 -43.96974 2757 ft 14 kts 319°
2026-05-03 23:03 -19.62937 -43.97049 2757 ft 16 kts 319°
2026-05-03 23:03 -19.62848 -43.97131 2757 ft 17 kts 319°
2026-05-03 23:04 -19.62751 -43.97219 2757 ft 19 kts 319°
2026-05-03 23:04 -19.62649 -43.97315 2757 ft 20 kts 318°
2026-05-03 23:04 -19.62542 -43.97414 2757 ft 20 kts 319°
2026-05-03 23:04 -19.62435 -43.97513 2757 ft 20 kts 319°
2026-05-03 23:05 -19.62329 -43.97610 2757 ft 20 kts 319°
2026-05-03 23:05 -19.62284 -43.97693 2757 ft 11 kts 239°
2026-05-03 23:05 -19.62332 -43.97755 2757 ft 10 kts 231°
2026-05-03 23:05 -19.62375 -43.97790 2757 ft 7 kts 164°
2026-05-03 23:06 -19.62418 -43.97758 2757 ft 9 kts 140°
2026-05-03 23:06 -19.62603 -43.97588 2757 ft 65 kts 138°
2026-05-03 23:06 -19.63098 -43.97130 2757 ft 120 kts 139°
2026-05-03 23:06 -19.63847 -43.96439 2761 ft 164 kts 139°
2026-05-03 23:07 -19.64706 -43.95656 3225 ft 164 kts 139°
2026-05-03 23:07 -19.65589 -43.94855 3704 ft 172 kts 139°
2026-05-03 23:07 -19.66509 -43.94017 4213 ft 177 kts 137°
2026-05-03 23:07 -19.67437 -43.93151 4748 ft 181 kts 136°
2026-05-03 23:08 -19.68288 -43.92112 5096 ft 194 kts 111°
2026-05-03 23:08 -19.68373 -43.90670 5461 ft 206 kts 73°
2026-05-03 23:08 -19.67810 -43.89238 5879 ft 218 kts 65°
2026-05-03 23:08 -19.67178 -43.87721 6274 ft 234 kts 68°
2026-05-03 23:09 -19.66575 -43.86067 6722 ft 248 kts 70°
2026-05-03 23:09 -19.65959 -43.84275 7153 ft 264 kts 70°
2026-05-03 23:09 -19.65330 -43.82434 7717 ft 273 kts 70°
2026-05-03 23:09 -19.64675 -43.80535 8407 ft 277 kts 70°
2026-05-03 23:10 -19.64004 -43.78604 9084 ft 281 kts 70°
2026-05-03 23:10 -19.63340 -43.76678 9832 ft 283 kts 70°
2026-05-03 23:10 -19.62667 -43.74699 10522 ft 289 kts 70°
2026-05-03 23:10 -19.61931 -43.72635 10891 ft 307 kts 66°
2026-05-03 23:11 -19.60874 -43.70642 11267 ft 323 kts 54°
2026-05-03 23:11 -19.59436 -43.68728 11677 ft 339 kts 49°
2026-05-03 23:11 -19.57835 -43.66814 12156 ft 350 kts 48°
2026-05-03 23:11 -19.56216 -43.64883 12770 ft 357 kts 48°
2026-05-03 23:12 -19.54565 -43.62863 13406 ft 363 kts 49°
2026-05-03 23:12 -19.52932 -43.60814 14046 ft 369 kts 49°
2026-05-03 23:12 -19.51291 -43.58721 14699 ft 374 kts 50°
2026-05-03 23:12 -19.49653 -43.56558 15360 ft 379 kts 51°
2026-05-03 23:13 -19.48046 -43.54351 16009 ft 384 kts 52°
2026-05-03 23:13 -19.46424 -43.52083 16636 ft 389 kts 52°
2026-05-03 23:13 -19.44777 -43.49777 17265 ft 394 kts 52°
2026-05-03 23:13 -19.43116 -43.47459 17848 ft 400 kts 51°
2026-05-03 23:14 -19.41418 -43.45104 18469 ft 404 kts 51°
2026-05-03 23:14 -19.39706 -43.42737 19062 ft 408 kts 51°
2026-05-03 23:14 -19.37954 -43.40321 19639 ft 413 kts 51°
2026-05-03 23:14 -19.36198 -43.37906 20241 ft 417 kts 51°
2026-05-03 23:15 -19.34428 -43.35475 20759 ft 422 kts 51°
2026-05-03 23:15 -19.32627 -43.33002 21333 ft 426 kts 51°
2026-05-03 23:15 -19.30826 -43.30526 21824 ft 431 kts 51°
2026-05-03 23:15 -19.28987 -43.27994 22333 ft 435 kts 51°
2026-05-03 23:16 -19.27150 -43.25465 22872 ft 439 kts 51°
2026-05-03 23:16 -19.25265 -43.22868 23423 ft 442 kts 50°
2026-05-03 23:16 -19.23395 -43.20293 23923 ft 445 kts 50°
2026-05-03 23:16 -19.21503 -43.17690 24423 ft 449 kts 50°
2026-05-03 23:17 -19.19589 -43.15059 24911 ft 453 kts 50°
2026-05-03 23:17 -19.17672 -43.12425 25414 ft 456 kts 50°
2026-05-03 23:17 -19.15725 -43.09750 25877 ft 459 kts 50°
2026-05-03 23:17 -19.13783 -43.07085 26385 ft 462 kts 50°
2026-05-03 23:18 -19.11819 -43.04388 26816 ft 466 kts 50°
2026-05-03 23:18 -19.09838 -43.01672 27286 ft 468 kts 50°
2026-05-03 23:18 -19.07863 -42.98962 27742 ft 471 kts 50°
2026-05-03 23:18 -19.05861 -42.96217 28175 ft 474 kts 50°
2026-05-03 23:19 -19.03820 -42.93420 28625 ft 477 kts 50°
2026-05-03 23:19 -19.01789 -42.90640 29000 ft 481 kts 50°
2026-05-03 23:19 -18.99765 -42.87868 29555 ft 480 kts 50°
2026-05-03 23:19 -18.97742 -42.85098 30186 ft 477 kts 49°
2026-05-03 23:20 -18.95712 -42.82335 30732 ft 476 kts 49°
2026-05-03 23:20 -18.93642 -42.79640 31221 ft 475 kts 46°
2026-05-03 23:20 -18.91356 -42.77091 31742 ft 471 kts 40°
2026-05-03 23:20 -18.88920 -42.74819 32214 ft 469 kts 36°
2026-05-03 23:21 -18.86377 -42.72696 32685 ft 467 kts 33°
2026-05-03 23:21 -18.83778 -42.70645 33193 ft 465 kts 32°
2026-05-03 23:21 -18.81169 -42.68632 33818 ft 462 kts 32°
2026-05-03 23:21 -18.78580 -42.66642 34310 ft 461 kts 32°
2026-05-03 23:22 -18.73409 -42.62632 35335 ft 458 kts 32°
2026-05-03 23:22 -18.70863 -42.60635 35766 ft 458 kts 33°
2026-05-03 23:22 -18.68325 -42.58634 36166 ft 458 kts 33°
2026-05-03 23:23 -18.65762 -42.56605 36554 ft 458 kts 33°
2026-05-03 23:23 -18.63232 -42.54596 36901 ft 458 kts 33°
2026-05-03 23:23 -18.60676 -42.52562 37179 ft 459 kts 33°
2026-05-03 23:23 -18.58113 -42.50523 37168 ft 461 kts 33°
2026-05-03 23:24 -18.53013 -42.46459 37159 ft 457 kts 33°
2026-05-03 23:24 -18.47955 -42.42429 37153 ft 459 kts 33°
2026-05-03 23:25 -18.42854 -42.38367 37153 ft 457 kts 33°
2026-05-03 23:25 -18.37792 -42.34339 37157 ft 457 kts 33°
2026-05-03 23:26 -18.32705 -42.30295 37157 ft 456 kts 33°
2026-05-03 23:26 -18.27642 -42.26274 37166 ft 456 kts 33°
2026-05-03 23:27 -18.22557 -42.22242 37161 ft 457 kts 33°
2026-05-03 23:27 -18.17483 -42.18221 37146 ft 458 kts 33°
2026-05-03 23:28 -18.12416 -42.14206 37133 ft 458 kts 33°
2026-05-03 23:28 -18.07295 -42.10152 37130 ft 457 kts 33°
2026-05-03 23:29 -18.02249 -42.06160 37125 ft 456 kts 33°
2026-05-03 23:29 -17.97157 -42.02137 37130 ft 456 kts 33°
2026-05-03 23:30 -17.92088 -41.98133 37140 ft 455 kts 33°
2026-05-03 23:30 -17.87060 -41.94164 37147 ft 455 kts 33°
2026-05-03 23:31 -17.81995 -41.90170 37152 ft 456 kts 33°
2026-05-03 23:31 -17.76923 -41.86173 37155 ft 455 kts 33°
2026-05-03 23:32 -17.71862 -41.82187 37152 ft 454 kts 33°
2026-05-03 23:32 -17.66802 -41.78205 37148 ft 454 kts 33°
2026-05-03 23:33 -17.61750 -41.74233 37145 ft 453 kts 33°
2026-05-03 23:33 -17.56743 -41.70298 37141 ft 453 kts 33°
2026-05-03 23:34 -17.51676 -41.66317 37136 ft 452 kts 33°
2026-05-03 23:34 -17.46663 -41.62382 37136 ft 453 kts 33°
2026-05-03 23:35 -17.41632 -41.58437 37134 ft 453 kts 33°
2026-05-03 23:35 -17.36563 -41.54466 37135 ft 452 kts 33°
2026-05-03 23:36 -17.31540 -41.50533 37136 ft 451 kts 33°
2026-05-03 23:36 -17.26537 -41.46615 37141 ft 450 kts 33°
2026-05-03 23:37 -17.21495 -41.42673 37146 ft 451 kts 33°
2026-05-03 23:37 -17.16477 -41.38750 37147 ft 451 kts 33°
2026-05-03 23:38 -17.11458 -41.34829 37149 ft 450 kts 33°
2026-05-03 23:38 -17.06441 -41.30913 37151 ft 450 kts 33°
2026-05-03 23:39 -17.01388 -41.26973 37149 ft 450 kts 33°
2026-05-03 23:39 -16.96391 -41.23076 37148 ft 451 kts 33°
2026-05-03 23:40 -16.91346 -41.19145 37144 ft 450 kts 33°
2026-05-03 23:40 -16.86336 -41.15246 37141 ft 451 kts 33°
2026-05-03 23:41 -16.81298 -41.11326 37138 ft 449 kts 33°
2026-05-03 23:41 -16.76291 -41.07433 37137 ft 450 kts 33°
2026-05-03 23:42 -16.71277 -41.03539 37135 ft 450 kts 33°
2026-05-03 23:42 -16.66278 -40.99658 37136 ft 449 kts 33°
2026-05-03 23:43 -16.61247 -40.95755 37138 ft 449 kts 34°
2026-05-03 23:43 -16.56251 -40.91882 37140 ft 448 kts 33°
2026-05-03 23:44 -16.51246 -40.88005 37143 ft 449 kts 34°
2026-05-03 23:44 -16.46237 -40.84127 37139 ft 449 kts 34°
2026-05-03 23:45 -16.41205 -40.80233 37131 ft 449 kts 34°
2026-05-03 23:45 -16.36195 -40.76357 37125 ft 449 kts 34°
2026-05-03 23:46 -16.31173 -40.72477 37118 ft 448 kts 34°
2026-05-03 23:46 -16.26195 -40.68632 37114 ft 449 kts 34°
2026-05-03 23:47 -16.21177 -40.64762 36954 ft 447 kts 34°
2026-05-03 23:47 -16.18683 -40.62839 36481 ft 444 kts 34°
2026-05-03 23:47 -16.16207 -40.60930 35905 ft 441 kts 34°
2026-05-03 23:48 -16.13749 -40.59035 35245 ft 440 kts 34°
2026-05-03 23:48 -16.11318 -40.57161 34783 ft 434 kts 34°
2026-05-03 23:48 -16.08910 -40.55305 34339 ft 429 kts 34°
2026-05-03 23:48 -16.06499 -40.53448 33882 ft 433 kts 34°
2026-05-03 23:49 -16.04059 -40.51572 33392 ft 434 kts 34°
2026-05-03 23:49 -16.01640 -40.49710 32911 ft 429 kts 34°
2026-05-03 23:49 -15.99275 -40.47890 32467 ft 424 kts 34°
2026-05-03 23:49 -15.96930 -40.46085 32015 ft 419 kts 34°
2026-05-03 23:50 -15.94576 -40.44275 31544 ft 415 kts 34°
2026-05-03 23:50 -15.92275 -40.42507 31084 ft 411 kts 34°
2026-05-03 23:50 -15.89992 -40.40753 30620 ft 407 kts 34°
2026-05-03 23:50 -15.87714 -40.39004 30162 ft 403 kts 35°
2026-05-03 23:51 -15.85473 -40.37284 29705 ft 400 kts 34°
2026-05-03 23:51 -15.83225 -40.35560 29246 ft 396 kts 35°
2026-05-03 23:51 -15.81041 -40.33886 28796 ft 392 kts 34°
2026-05-03 23:51 -15.78866 -40.32218 28349 ft 389 kts 34°
2026-05-03 23:52 -15.76688 -40.30550 27897 ft 385 kts 34°
2026-05-03 23:52 -15.74540 -40.28905 27450 ft 382 kts 35°
2026-05-03 23:52 -15.72407 -40.27271 27001 ft 379 kts 35°
2026-05-03 23:52 -15.70294 -40.25653 26550 ft 376 kts 35°
2026-05-03 23:53 -15.68202 -40.24051 26108 ft 373 kts 35°
2026-05-03 23:53 -15.66132 -40.22468 25664 ft 370 kts 35°
2026-05-03 23:53 -15.64066 -40.20887 25220 ft 367 kts 35°
2026-05-03 23:53 -15.62015 -40.19319 24777 ft 364 kts 36°
2026-05-03 23:54 -15.60000 -40.17771 24340 ft 361 kts 36°
2026-05-03 23:54 -15.58083 -40.16134 23909 ft 358 kts 41°
2026-05-03 23:54 -15.56277 -40.14345 23472 ft 355 kts 44°
2026-05-03 23:54 -15.54573 -40.12530 23043 ft 353 kts 45°
2026-05-03 23:55 -15.52881 -40.10680 22602 ft 351 kts 46°
2026-05-03 23:55 -15.51202 -40.08838 22162 ft 348 kts 46°
2026-05-03 23:55 -15.49546 -40.07029 21726 ft 346 kts 46°
2026-05-03 23:55 -15.47897 -40.05237 21293 ft 344 kts 46°
2026-05-03 23:56 -15.46257 -40.03463 20865 ft 342 kts 46°
2026-05-03 23:56 -15.44614 -40.01693 20436 ft 339 kts 46°
2026-05-03 23:56 -15.42987 -39.99943 20008 ft 338 kts 46°
2026-05-03 23:56 -15.41349 -39.98184 19572 ft 336 kts 47°
2026-05-03 23:57 -15.39739 -39.96457 19140 ft 334 kts 47°
2026-05-03 23:57 -15.38131 -39.94732 18721 ft 332 kts 47°
2026-05-03 23:57 -15.36543 -39.93026 18298 ft 330 kts 47°
2026-05-03 23:57 -15.34943 -39.91310 17866 ft 328 kts 47°
2026-05-03 23:58 -15.33369 -39.89622 17447 ft 326 kts 47°
2026-05-03 23:58 -15.31796 -39.87936 17032 ft 324 kts 47°
2026-05-03 23:58 -15.30240 -39.86269 16616 ft 323 kts 47°
2026-05-03 23:58 -15.28686 -39.84605 16202 ft 321 kts 47°
2026-05-03 23:59 -15.27130 -39.82940 15788 ft 319 kts 48°
2026-05-03 23:59 -15.25591 -39.81294 15370 ft 317 kts 48°
2026-05-03 23:59 -15.24066 -39.79662 14959 ft 315 kts 48°
2026-05-03 23:59 -15.22537 -39.78027 14550 ft 313 kts 49°
2026-05-04 00:00 -15.21034 -39.76419 14151 ft 311 kts 49°
2026-05-04 00:00 -15.19538 -39.74819 13748 ft 309 kts 49°
2026-05-04 00:00 -15.18042 -39.73220 13348 ft 306 kts 49°
2026-05-04 00:00 -15.16573 -39.71650 12959 ft 304 kts 49°
2026-05-04 00:01 -15.15114 -39.70090 12561 ft 303 kts 48°
2026-05-04 00:01 -15.13639 -39.68513 12156 ft 301 kts 48°
2026-05-04 00:01 -15.12201 -39.66977 11762 ft 299 kts 48°
2026-05-04 00:01 -15.10746 -39.65424 11367 ft 297 kts 48°
2026-05-04 00:02 -15.09324 -39.63906 10976 ft 295 kts 48°
2026-05-04 00:02 -15.07904 -39.62390 10581 ft 293 kts 48°
2026-05-04 00:02 -15.06477 -39.60867 10189 ft 291 kts 47°
2026-05-04 00:02 -15.05093 -39.59392 10019 ft 280 kts 48°
2026-05-04 00:03 -15.03752 -39.57961 9674 ft 278 kts 47°
2026-05-04 00:03 -15.02401 -39.56519 9295 ft 277 kts 47°
2026-05-04 00:03 -15.01058 -39.55086 8929 ft 275 kts 48°
2026-05-04 00:03 -14.99777 -39.53639 8572 ft 273 kts 52°
2026-05-04 00:04 -14.98593 -39.52108 8221 ft 271 kts 55°
2026-05-04 00:04 -14.97472 -39.50555 7871 ft 269 kts 56°
2026-05-04 00:04 -14.96365 -39.49008 7525 ft 268 kts 56°
2026-05-04 00:04 -14.95260 -39.47478 7177 ft 267 kts 56°
2026-05-04 00:05 -14.94146 -39.45953 6835 ft 265 kts 56°
2026-05-04 00:05 -14.93035 -39.44439 6491 ft 264 kts 56°
2026-05-04 00:05 -14.91921 -39.42924 6150 ft 263 kts 57°
2026-05-04 00:05 -14.90814 -39.41420 5810 ft 262 kts 57°
2026-05-04 00:06 -14.89702 -39.39910 5463 ft 262 kts 57°
2026-05-04 00:06 -14.88608 -39.38422 5128 ft 260 kts 57°
2026-05-04 00:06 -14.87513 -39.36933 4791 ft 259 kts 57°
2026-05-04 00:06 -14.86433 -39.35466 4524 ft 254 kts 57°
2026-05-04 00:07 -14.85378 -39.34057 4449 ft 240 kts 57°
2026-05-04 00:07 -14.84458 -39.32687 4363 ft 225 kts 62°
2026-05-04 00:07 -14.83727 -39.31311 4286 ft 212 kts 68°
2026-05-04 00:07 -14.83147 -39.29944 4216 ft 200 kts 73°
2026-05-04 00:08 -14.82726 -39.28625 4012 ft 193 kts 79°
2026-05-04 00:08 -14.82461 -39.27287 3795 ft 186 kts 85°
2026-05-04 00:08 -14.82314 -39.25985 3601 ft 181 kts 88°
2026-05-04 00:08 -14.82225 -39.24686 3408 ft 181 kts 90°
2026-05-04 00:09 -14.82163 -39.23387 3259 ft 179 kts 91°
2026-05-04 00:09 -14.82114 -39.22097 3140 ft 180 kts 91°
2026-05-04 00:09 -14.82072 -39.20813 3015 ft 178 kts 91°
2026-05-04 00:09 -14.82033 -39.19541 2896 ft 178 kts 91°
2026-05-04 00:10 -14.81998 -39.18248 2684 ft 179 kts 91°
2026-05-04 00:10 -14.81961 -39.16977 2434 ft 176 kts 91°
2026-05-04 00:10 -14.81924 -39.15722 2193 ft 172 kts 91°
2026-05-04 00:10 -14.81889 -39.14508 1963 ft 169 kts 91°
2026-05-04 00:11 -14.81855 -39.13325 1744 ft 161 kts 90°
2026-05-04 00:11 -14.81824 -39.12138 1544 ft 165 kts 91°
2026-05-04 00:11 -14.81796 -39.10981 1346 ft 160 kts 90°
2026-05-04 00:11 -14.81766 -39.09874 1088 ft 149 kts 92°
2026-05-04 00:12 -14.81738 -39.08849 900 ft 136 kts 91°
2026-05-04 00:12 -14.81713 -39.07898 770 ft 134 kts 91°
2026-05-04 00:12 -14.81690 -39.06930 569 ft 134 kts 91°
2026-05-04 00:12 -14.81666 -39.05949 416 ft 137 kts 90°
2026-05-04 00:13 -14.81636 -39.04962 260 ft 141 kts 91°
2026-05-04 00:13 -14.81608 -39.03970 52 ft 135 kts 90°
2026-05-04 00:13 -14.81587 -39.03138 26 ft 75 kts 88°
2026-05-04 00:13 -14.81575 -39.02784 26 ft 38 kts 89°
2026-05-04 00:14 -14.81592 -39.02644 26 ft 13 kts 118°
2026-05-04 00:14 -14.81581 -39.02613 26 ft 4 kts 316°
2026-05-04 00:14 -14.81575 -39.02654 26 ft 7 kts 271°
2026-05-04 00:14 -14.81575 -39.02720 26 ft 10 kts 269°
2026-05-04 00:15 -14.81576 -39.02810 26 ft 14 kts 269°
2026-05-04 00:15 -14.81579 -39.02922 26 ft 17 kts 268°
2026-05-04 00:15 -14.81582 -39.03021 26 ft 11 kts 268°
2026-05-04 00:15 -14.81565 -39.03072 26 ft 5 kts 322°
2026-05-04 00:16 -14.81526 -39.03081 26 ft 7 kts 354°
2026-05-04 00:16 -14.81485 -39.03106 26 ft 7 kts 288°
2026-05-04 00:16 -14.81482 -39.03159 26 ft 6 kts 267°
2026-05-04 00:16 -14.81474 -39.03193 26 ft 3 kts 335°
2026-05-04 00:17 -14.81453 -39.03189 26 ft 2 kts 39°
2026-05-04 00:17 -14.81447 -39.03184 26 ft 0 kts 39°